Register | Login
Attackpoint - performance and training tools for orienteering athletes

Common Leg: 155 – 174

OCIN Flying Pig XXIV - 2022 Junior Nationals (Apr 2) - this leg is used on the following courses:

Combined splits

#
1. Glennnnn 2:31 OCIN_FP2022_Saturday_Classic_2022-04-02_11_Blue
2. barrett 2:50 +19 13% OCIN_FP2022_Saturday_Classic_2022-04-02_11_Blue
3. Danny Riley 3:08 +37 25% OCIN_FP2022_Saturday_Classic_2022-04-02_11_Blue
4. Aragorn 3:15 +44 29% OCIN_FP2022_Saturday_Classic_2022-04-02_11_Blue
5. BigWillyStyle 3:19 +48 32% OCIN_FP2022_Saturday_Classic_2022-04-02_11_Blue
6. Maricel Olaru 3:20 +49 32% OCIN_FP2022_Saturday_Classic_2022-04-02_11_Blue
7. TomN 3:27 +56 37% OCIN_FP2022_Saturday_Classic_2022-04-02_6_BrownB
8. John Barrett 3:31 +1:00 40% OCIN_FP2022_Saturday_Classic_2022-04-02_11_Blue
9. Ben Brady 3:34 +1:03 42% OCIN_FP2022_Saturday_Classic_2022-04-02_9_GreenC
10. inter_pro 3:41 +1:10 46% OCIN_FP2022_Saturday_Classic_2022-04-02_11_Blue
11. Brenden Doogan 3:58 +1:27 58% OCIN_FP2022_Saturday_Classic_2022-04-02_9_GreenC
11. Gabriel DeGracia 3:58 +1:27 58% OCIN_FP2022_Saturday_Classic_2022-04-02_9_GreenC
13. Roman Colley 4:01 +1:30 60% OCIN_FP2022_Saturday_Classic_2022-04-02_9_GreenC
14. jeremycolgan 4:02 +1:31 60% OCIN_FP2022_Saturday_Classic_2022-04-02_11_Blue
15. Conner Malone 4:07 +1:36 64% OCIN_FP2022_Saturday_Classic_2022-04-02_9_GreenC
16. peggyd 4:16 +1:45 70% OCIN_FP2022_Saturday_Classic_2022-04-02_6_BrownB
16. rastridge 4:16 +1:45 70% OCIN_FP2022_Saturday_Classic_2022-04-02_9_GreenC
18. zsibthorp 4:18 +1:47 71% OCIN_FP2022_Saturday_Classic_2022-04-02_9_GreenC
19. Sandbo 4:21 +1:50 73% OCIN_FP2022_Saturday_Classic_2022-04-02_9_GreenC
19. GlenT 4:21 +1:50 73% OCIN_FP2022_Saturday_Classic_2022-04-02_6_BrownB
21. Jim Benton 4:23 +1:52 74% OCIN_FP2022_Saturday_Classic_2022-04-02_11_Blue
22. Jack Barkley 4:26 +1:55 76% OCIN_FP2022_Saturday_Classic_2022-04-02_9_GreenC
23. Mason Lotempio 4:32 +2:01 80% OCIN_FP2022_Saturday_Classic_2022-04-02_9_GreenC
24. lilyaddicott 4:33 +2:02 81% OCIN_FP2022_Saturday_Classic_2022-04-02_9_GreenC
25. annikamihata 4:35 +2:04 82% OCIN_FP2022_Saturday_Classic_2022-04-02_9_GreenC
26. Tundra/Desert 4:37 +2:06 83% OCIN_FP2022_Saturday_Classic_2022-04-02_11_Blue
27. Sam Smith 4:40 +2:09 85% OCIN_FP2022_Saturday_Classic_2022-04-02_6_BrownB
28. CoZ 4:41 +2:10 86% OCIN_FP2022_Saturday_Classic_2022-04-02_6_BrownB
29. ZariahZ 4:42 +2:11 87% OCIN_FP2022_Saturday_Classic_2022-04-02_6_BrownB
30. Ava 4:43 +2:12 87% OCIN_FP2022_Saturday_Classic_2022-04-02_6_BrownB
31. jcolleran 4:45 +2:14 89% OCIN_FP2022_Saturday_Classic_2022-04-02_9_GreenC
32. SherlockHolmes 4:47 +2:16 90% OCIN_FP2022_Saturday_Classic_2022-04-02_6_BrownB
33. Corrigan Railey 4:50 +2:19 92% OCIN_FP2022_Saturday_Classic_2022-04-02_9_GreenC
34. Michael Schuh 4:51 +2:20 93% OCIN_FP2022_Saturday_Classic_2022-04-02_6_BrownB
35. MaxA 4:52 +2:21 93% OCIN_FP2022_Saturday_Classic_2022-04-02_9_GreenC
36. Brett Barrows 4:53 +2:22 94% OCIN_FP2022_Saturday_Classic_2022-04-02_9_GreenC
37. Priscilla Kelley 4:56 +2:25 96% OCIN_FP2022_Saturday_Classic_2022-04-02_6_BrownB
38. o-maps 4:58 +2:27 97% OCIN_FP2022_Saturday_Classic_2022-04-02_6_BrownB
39. Josie Olson 5:01 +2:30 99% OCIN_FP2022_Saturday_Classic_2022-04-02_9_GreenC
40. Grace Suhocki 5:05 +2:34 102% OCIN_FP2022_Saturday_Classic_2022-04-02_9_GreenC
41. fzendt 5:10 +2:39 105% OCIN_FP2022_Saturday_Classic_2022-04-02_6_BrownB
41. Sahara Brewington 5:10 +2:39 105% OCIN_FP2022_Saturday_Classic_2022-04-02_6_BrownB
43. Soupbone 5:11 +2:40 106% OCIN_FP2022_Saturday_Classic_2022-04-02_6_BrownB
43. Laurie Sydzyik 5:11 +2:40 106% OCIN_FP2022_Saturday_Classic_2022-04-02_6_BrownB
45. Walter Siegenthaler 5:15 +2:44 109% OCIN_FP2022_Saturday_Classic_2022-04-02_6_BrownB
46. Ralph Courtney 5:17 +2:46 110% OCIN_FP2022_Saturday_Classic_2022-04-02_6_BrownB
47. David Hunter 5:18 +2:47 111% OCIN_FP2022_Saturday_Classic_2022-04-02_6_BrownB
48. pgg 5:19 +2:48 111% OCIN_FP2022_Saturday_Classic_2022-04-02_11_Blue
49. cmpblla 5:20 +2:49 112% OCIN_FP2022_Saturday_Classic_2022-04-02_9_GreenC
50. Luke Menzie 5:21 +2:50 113% OCIN_FP2022_Saturday_Classic_2022-04-02_9_GreenC
50. Chiori Shimizu 5:21 +2:50 113% OCIN_FP2022_Saturday_Classic_2022-04-02_6_BrownB
52. Ing Uhlin 5:26 +2:55 116% OCIN_FP2022_Saturday_Classic_2022-04-02_6_BrownB
53. andib 5:31 +3:00 119% OCIN_FP2022_Saturday_Classic_2022-04-02_6_BrownB
54. Finley Miller 5:52 +3:21 133% OCIN_FP2022_Saturday_Classic_2022-04-02_9_GreenC
55. Lukas Lange 5:54 +3:23 134% OCIN_FP2022_Saturday_Classic_2022-04-02_9_GreenC
56. Connor Martin 5:56 +3:25 136% OCIN_FP2022_Saturday_Classic_2022-04-02_9_GreenC
57. Eileen Breseman 5:58 +3:27 137% OCIN_FP2022_Saturday_Classic_2022-04-02_6_BrownB
58. AubreeW 6:21 +3:50 152% OCIN_FP2022_Saturday_Classic_2022-04-02_6_BrownB
59. BoulderBob 6:28 +3:57 157% OCIN_FP2022_Saturday_Classic_2022-04-02_6_BrownB
60. gzoppi 6:31 +4:00 159% OCIN_FP2022_Saturday_Classic_2022-04-02_9_GreenC
61. smittyo 6:47 +4:16 170% OCIN_FP2022_Saturday_Classic_2022-04-02_6_BrownB
62. Alex Bowles 6:48 +4:17 170% OCIN_FP2022_Saturday_Classic_2022-04-02_9_GreenC
63. Diane McKim 7:00 +4:29 178% OCIN_FP2022_Saturday_Classic_2022-04-02_6_BrownB
64. Bethany Jablon 7:05 +4:34 181% OCIN_FP2022_Saturday_Classic_2022-04-02_9_GreenC
65. Salinda 7:08 +4:37 183% OCIN_FP2022_Saturday_Classic_2022-04-02_9_GreenC
66. Linette Barry 7:54 +5:23 214% OCIN_FP2022_Saturday_Classic_2022-04-02_6_BrownB
67. Vera Eames 7:55 +5:24 215% OCIN_FP2022_Saturday_Classic_2022-04-02_6_BrownB
68. Audrey Javadoff 8:03 +5:32 220% OCIN_FP2022_Saturday_Classic_2022-04-02_9_GreenC
69. Rob Wilkison 8:05 +5:34 221% OCIN_FP2022_Saturday_Classic_2022-04-02_6_BrownB
70. Kim Doogan 9:40 +7:09 284% OCIN_FP2022_Saturday_Classic_2022-04-02_6_BrownB
71. Florence Tan 10:03 +7:32 299% OCIN_FP2022_Saturday_Classic_2022-04-02_6_BrownB
72. Vinton Wolfe 10:11 +7:40 305% OCIN_FP2022_Saturday_Classic_2022-04-02_6_BrownB
73. Valerie Benton 10:33 +8:02 319% OCIN_FP2022_Saturday_Classic_2022-04-02_6_BrownB
74. Jim Carter 10:54 +8:23 333% OCIN_FP2022_Saturday_Classic_2022-04-02_6_BrownB
75. kkling 12:08 +9:37 382% OCIN_FP2022_Saturday_Classic_2022-04-02_6_BrownB
76. Judith Martineau 18:44 +16:13 644% OCIN_FP2022_Saturday_Classic_2022-04-02_6_BrownB